Location: Wien
(48.2082°N, 16.3738°E)
Time: 20:34:09
(UTC+02:00)

MOZHAYETS 4 - Pass Details

Date: 01 May 2024
Orbit: 652 x 670 km, 98.3° (Epoch: 20 May)

Event Time Altitude Azimuth Distance (km) Brightness Sun altitude
Rises 04:21:27 0° 174° (S) 3,006 10.8 -11.3°
Reaches altitude 10° 04:23:42 10° 178° (S) 2,096 9.9 -11.0°
Maximum altitude 04:28:14 60° 259° (WSW) 768 7.8 -10.4°
Drops below altitude 10° 04:32:47 10° 339° (NNW) 2,108 10.5 -9.8°
Sets 04:35:04 0° 343° (NNW) 3,024 11.4 -9.5°
